GW0821 Weather Reports


time (UTC)temp
C
wind
direction
speed
KPH
gust
KPH
rain 1hr
cm
rain 24hr
cm
rain mn
cm
humidity
%
barometer
mb
20260831033049 15 0 0.0 0.0 0.00 0.00 0.00 75 1017.9
20260831031556 15 0 0.0 0.0 0.00 0.00 0.00 74 1017.8
20260831024548 15 0 0.0 0.0 0.00 0.00 0.00 73 1017.5
20260831023056 15 0 0.0 0.0 0.00 0.00 0.00 72 1017.4
20260831021553 15 0 0.0 0.0 0.00 0.00 0.00 72 1017.5
20260831020052 16 0 0.0 0.0 0.00 0.00 0.00 70 1017.5
20260831014602 16 0 0.0 0.0 0.00 0.00 0.00 70 1017.6
20260831013057 16 0 0.0 0.0 0.00 0.00 0.00 70 1017.6
20260831011615 16 0 0.0 0.0 0.00 0.00 0.00 69 1017.7
20260831010058 16 0 0.0 0.0 0.00 0.00 0.00 68 1017.7
20260831004555 16 0 0.0 1.6 0.00 0.00 0.00 67 1017.5
20260831003054 16 0 0.0 0.0 0.00 0.00 0.00 67 1017.4
20260831001600 17 0 0.0 0.0 0.00 0.00 0.00 66 1017.4
20260831000058 17 0 0.0 1.6 0.00 0.00 0.00 66 1017.4
20260830234555 17 0 0.0 1.6 0.00 0.00 0.00 66 1017.4
20260830233055 17 0 0.0 0.0 0.00 0.00 0.00 64 1017.5
20260830231608 18 0 0.0 0.0 0.00 0.00 0.00 64 1017.5
20260830230057 18 0 0.0 0.0 0.00 0.00 0.00 64 1017.5
20260830224611 18 0 0.0 0.0 0.00 0.00 0.00 64 1017.5
20260830223054 18 0 0.0 0.0 0.00 0.00 0.00 64 1017.4
20260830221548 18 0 0.0 0.0 0.00 0.00 0.00 65 1017.4
20260830214557 19 0 0.0 0.0 0.00 0.00 0.00 65 1017.2
20260830213053 20 0 0.0 0.0 0.00 0.00 0.00 65 1017.2
20260830211551 20 0 0.0 0.0 0.00 0.00 0.00 64 1017.1
20260830210100 20 0 0.0 0.0 0.00 0.00 0.00 64 1017.1
20260830204549 21 0 0.0 0.0 0.00 0.00 0.00 63 1017.1
20260830203056 21 0 0.0 0.0 0.00 0.00 0.00 61 1016.8
20260830201552 22 0 0.0 0.0 0.00 0.00 0.00 61 1016.6
20260830200050 22 0 0.0 0.0 0.00 0.00 0.00 59 1016.4
20260830194601 23 0 0.0 0.0 0.00 0.00 0.00 57 1016.3
20260830193055 23 0 0.0 1.6 0.00 0.00 0.00 56 1016.2
20260830191551 24 0 0.0 6.4 0.00 0.00 0.00 54 1015.9
20260830190051 25 149 1.6 6.4 0.00 0.00 0.00 53 1015.7
20260830184559 25 151 3.2 9.7 0.00 0.00 0.00 51 1015.6
20260830183054 26 164 3.2 8.0 0.00 0.00 0.00 49 1015.6
20260830181551 26 118 4.8 12.9 0.00 0.00 0.00 48 1015.5
20260830180053 26 151 4.8 12.9 0.00 0.00 0.00 47 1015.4
20260830174555 27 139 4.8 14.5 0.00 0.00 0.00 45 1015.4
20260830173053 28 138 6.4 16.1 0.00 0.00 0.00 44 1015.3
20260830171557 28 200 6.4 16.1 0.00 0.00 0.00 43 1015.4
20260830170101 29 188 4.8 17.7 0.00 0.00 0.00 44 1015.3
20260830164601 29 162 6.4 12.9 0.00 0.00 0.00 44 1015.3
20260830163100 30 171 4.8 22.5 0.00 0.00 0.00 45 1015.3
20260830161600 30 122 4.8 17.7 0.00 0.00 0.00 42 1015.0
20260830160053 30 127 6.4 19.3 0.00 0.00 0.00 42 1015.1
20260830154550 30 201 12.9 22.5 0.00 0.00 0.00 43 1015.2
20260830153059 31 181 4.8 17.7 0.00 0.00 0.00 43 1015.2
20260830151552 30 152 4.8 14.5 0.00 0.00 0.00 43 1015.2
20260830150055 30 134 8.0 22.5 0.00 0.00 0.00 45 1015.4
20260830144552 30 166 6.4 22.5 0.00 0.00 0.00 44 1015.5
20260830143110 30 182 9.7 14.5 0.00 0.00 0.00 44 1015.6
20260830141551 30 151 6.4 22.5 0.00 0.00 0.00 44 1015.6
20260830140051 30 143 9.7 25.7 0.00 0.00 0.00 44 1015.6
20260830134555 30 190 9.7 22.5 0.00 0.00 0.00 43 1015.8
20260830133051 30 91 14.5 27.4 0.00 0.00 0.00 42 1015.7
20260830131551 30 165 11.3 20.9 0.00 0.00 0.00 42 1015.8
20260830130101 30 184 9.7 19.3 0.00 0.00 0.00 40 1015.9
20260830124555 30 227 9.7 14.5 0.00 0.00 0.00 39 1016.1
20260830123108 30 181 6.4 14.5 0.00 0.00 0.00 39 1016.3
20260830121550 30 280 6.4 16.1 0.00 0.00 0.00 38 1016.4
20260830120058 29 236 3.2 8.0 0.00 0.00 0.00 38 1016.6
20260830114605 29 256 6.4 16.1 0.00 0.00 0.00 39 1016.7
20260830113049 28 274 4.8 11.3 0.00 0.00 0.00 40 1016.7
20260830111547 28 199 4.8 11.3 0.00 0.00 0.00 41 1017.2
20260830110058 28 158 1.6 11.3 0.00 0.00 0.00 42 1017.3
20260830104555 28 157 3.2 11.3 0.00 0.00 0.00 41 1017.3
20260830103053 28 168 6.4 16.1 0.00 0.00 0.00 43 1017.5
20260830101556 28 132 6.4 12.9 0.00 0.00 0.00 43 1017.6
20260830100046 27 134 6.4 16.1 0.00 0.00 0.00 42 1017.6
20260830094552 28 155 9.7 17.7 0.00 0.00 0.00 42 1017.7
20260830093052 27 211 6.4 14.5 0.00 0.00 0.00 42 1017.7
20260830091557 27 149 4.8 12.9 0.00 0.00 0.00 46 1017.8
20260830090051 26 113 3.2 4.8 0.00 0.00 0.00 53 1018.0
20260830084600 25 231 0.0 6.4 0.00 0.00 0.00 58 1018.0
20260830083058 23 53 4.8 9.7 0.00 0.00 0.00 63 1018.0
20260830081604 22 347 3.2 12.9 0.00 0.00 0.00 66 1018.0
20260830080052 22 12 4.8 11.3 0.00 0.00 0.00 67 1018.2
20260830074604 21 108 3.2 12.9 0.00 0.00 0.00 70 1018.1
20260830073052 21 96 0.0 6.4 0.00 0.00 0.00 72 1018.2
20260830071600 20 106 1.6 6.4 0.00 0.00 0.00 75 1018.2
20260830070053 18 98 0.0 3.2 0.00 0.00 0.00 78 1018.2
20260830064551 17 0 0.0 0.0 0.00 0.00 0.00 79 1018.2
20260830063100 15 0 0.0 0.0 0.00 0.00 0.00 86 1018.2
20260830061551 14 0 0.0 0.0 0.00 0.00 0.00 86 1018.2
20260830060055 14 0 0.0 0.0 0.00 0.00 0.00 87 1018.2
20260830054557 13 0 0.0 0.0 0.00 0.00 0.00 87 1018.1
20260830053052 14 0 0.0 0.0 0.00 0.00 0.00 87 1018.0
20260830051554 14 0 0.0 0.0 0.00 0.00 0.00 86 1017.8
20260830044553 14 0 0.0 0.0 0.00 0.00 0.00 86 1017.8
20260830043049 14 0 0.0 0.0 0.00 0.00 0.00 86 1017.8
20260830041606 15 0 0.0 0.0 0.00 0.00 0.00 85 1017.8
20260830040050 15 0 0.0 0.0 0.00 0.00 0.00 85 1017.8
20260830034556 15 0 0.0 0.0 0.00 0.00 0.00 85 1017.7